Weather History for EINN - April, 2014

Change the Weather History Date:

Tuesday, April 15, 2014

  Actual Average Record
Temperature  
Mean Temperature 50 °F -  
Max Temperature 61 °F 58 °F 64 °F (2007)
Min Temperature 39 °F 43 °F 31 °F (2012)
Degree Days  
Heating Degree Days 15    
Moisture  
Dew Point 39 °F    
Average Humidity 63    
Maximum Humidity 87    
Minimum Humidity 29    
Precipitation  
Precipitation 0.00 in 0.08 in - ()
Sea Level Pressure  
Sea Level Pressure 30.28 in    
Wind  
Wind Speed 10 mph ()    
Max Wind Speed 25 mph    
Max Gust Speed -    
Visibility 9.8 miles    
Events      
Averages and records for this station are not official NWS values.
T = Trace of Precipitation, MM = Missing Value Source: Averaged Metar Reports

Daily Weather History Graph

Daily Weather History Graph

Search for Another Location

Airport or City:

Trip Planner

Search our weather history database for the weather conditions in past years. The results will help you decide how hot, cold, wet, or windy it might be!

Date:

Astronomy

Apr. 15, 2014 Rise Set
Actual Time 6:37 AM IST 8:34 PM IST
Civil Twilight 6:01 AM IST 9:11 PM IST
Nautical Twilight 5:15 AM IST 9:57 PM IST
Astronomical Twilight 4:24 AM IST 10:49 PM IST
Moon 9:05 PM IST (4/15) 6:37 AM IST (4/15)
Length of Visible Light 15h 09m
Length of Day
13h 56m
Full, 100% of the Moon is Illuminated
Apr 15
Full
Apr 22
Last Quarter
Apr 29
New
May 7
First Quarter
May 14
Full

Hourly Weather History & Observations

Time (IST) Temp. Windchill Dew Point Humidity Pressure Visibility Wind Dir Wind Speed Gust Speed Precip Events Conditions
12:00 AM 48 °F - 39 °F 63% 30.34 in 16 mi ESE 11.2 mph - -   Clear
12:00 AM 48.2 °F - 39.2 °F 71% 30.33 in - ESE 10.4 mph - N/A   Clear
12:30 AM 46.4 °F 41.9 °F 39.2 °F 76% 30.33 in - East 9.2 mph - N/A   Clear
1:00 AM 44 °F - 39 °F 76% 30.33 in 12 mi East 6.7 mph - -   Clear
1:00 AM 44.6 °F 40.7 °F 39.2 °F 81% 30.33 in - East 6.9 mph - N/A   Clear
1:30 AM 44.6 °F 42.2 °F 39.2 °F 81% 30.33 in - East 4.6 mph - N/A   Clear
2:00 AM 44 °F - 39 °F 76% 30.34 in 12 mi ESE 4.5 mph - -   Clear
2:00 AM 44.6 °F 43.1 °F 39.2 °F 81% 30.33 in - ESE 3.5 mph - N/A   Clear
2:30 AM 42.8 °F 41.1 °F 37.4 °F 81% 30.33 in - East 3.5 mph - N/A   Clear
3:00 AM 41 °F - 37 °F 82% 30.33 in 12 mi East 2.2 mph - -   Clear
3:00 AM 41.0 °F - 37.4 °F 87% 30.33 in - East 2.3 mph - N/A   Clear
3:30 AM 42.8 °F 41.1 °F 37.4 °F 81% 30.30 in - NE 3.5 mph - N/A   Clear
4:00 AM 40 °F - 36 °F 81% 30.32 in 16 mi East 2.2 mph - -   Clear
4:00 AM 41.0 °F - 37.4 °F 87% 30.30 in - East 2.3 mph - N/A   Clear
4:30 AM 41.0 °F 37.1 °F 37.4 °F 87% 30.30 in - East 5.8 mph - N/A   Clear
5:00 AM 43 °F - 38 °F 74% 30.31 in 12 mi East 8.9 mph - -   Clear
5:00 AM 42.8 °F 38.0 °F 37.4 °F 81% 30.30 in - East 8.1 mph - N/A   Clear
5:30 AM 44.6 °F 40.2 °F 37.4 °F 76% 30.30 in - East 8.1 mph - N/A   Clear
6:00 AM 43 °F - 37 °F 73% 30.32 in 16 mi East 6.7 mph - -   Clear
6:00 AM 42.8 °F 38.6 °F 37.4 °F 81% 30.30 in - East 6.9 mph - N/A   Clear
6:30 AM 42.8 °F 39.3 °F 37.4 °F 81% 30.30 in - East 5.8 mph - N/A   Clear
7:00 AM 43 °F - 37 °F 73% 30.31 in 16 mi East 4.5 mph - -   Clear
7:00 AM 42.8 °F 41.1 °F 37.4 °F 81% 30.30 in - East 3.5 mph - N/A   Clear
7:30 AM 42.8 °F 39.3 °F 37.4 °F 81% 30.30 in 6.2 mi East 5.8 mph - N/A   Partly Cloudy
8:00 AM 42 °F - 37 °F 75% 30.32 in 16 mi South 4.5 mph - -   Scattered Clouds
8:00 AM 42.8 °F 40.1 °F 37.4 °F 81% 30.30 in 6.2 mi South 4.6 mph - N/A   Partly Cloudy
8:30 AM 42.8 °F 40.1 °F 37.4 °F 81% 30.30 in 6.2 mi SE 4.6 mph - N/A   Partly Cloudy
9:00 AM 45 °F - 39 °F 74% 30.31 in 12 mi ESE 6.7 mph - -   Scattered Clouds
9:00 AM 44.6 °F 40.7 °F 37.4 °F 76% 30.30 in 6.2 mi ESE 6.9 mph - N/A   Partly Cloudy
9:30 AM 46.4 °F 42.4 °F 41.0 °F 81% 30.30 in 6.2 mi ESE 8.1 mph - N/A   Partly Cloudy
10:00 AM 49 °F - 43 °F 71% 30.31 in 12 mi ESE 8.9 mph - -   Overcast
10:00 AM 50.0 °F - 42.8 °F 76% 30.30 in 6.2 mi ESE 8.1 mph - N/A   Scattered Clouds
10:30 AM 53.6 °F - 46.4 °F 77% 30.30 in 6.2 mi SE 12.7 mph - N/A   Mostly Cloudy
11:00 AM 56 °F - 43 °F 52% 30.30 in 31 mi SE 15.7 mph - -   Mostly Cloudy
11:00 AM 55.4 °F - 42.8 °F 63% 30.30 in 6.2 mi SE 16.1 mph - N/A   Mostly Cloudy
11:30 AM 57.2 °F - 42.8 °F 59% 30.27 in 6.2 mi SE 17.3 mph - N/A   Mostly Cloudy
12:00 PM 59 °F - 41 °F 39% 30.30 in 31 mi SE 22.4 mph - -   Scattered Clouds
12:00 PM 59.0 °F - 41.0 °F 51% 30.27 in 6.2 mi SE 21.9 mph - N/A   Mostly Cloudy
12:30 PM 60.8 °F - 41.0 °F 48% 30.27 in 6.2 mi SSE 23.0 mph - N/A   Mostly Cloudy
1:00 PM 60 °F - 40 °F 36% 30.29 in 31 mi SE 22.4 mph - -   Clear
1:00 PM 60.8 °F - 39.2 °F 45% 30.27 in - SE 23.0 mph - N/A   Clear
1:30 PM 60.8 °F - 39.2 °F 45% 30.27 in - SE 20.7 mph - N/A   Clear
2:00 PM 61 °F - 37 °F 29% 30.28 in 25 mi SE 22.4 mph - -   Clear
2:00 PM 60.8 °F - 37.4 °F 42% 30.27 in - SE 21.9 mph - N/A   Clear
2:30 PM 60.8 °F - 37.4 °F 42% 30.27 in - SSE 21.9 mph - N/A   Clear
3:00 PM 60 °F - 38 °F 33% 30.27 in 31 mi SE 24.6 mph - -   Clear
3:00 PM 60.8 °F - 39.2 °F 45% 30.27 in - SE 24.2 mph - N/A   Clear
3:30 PM 60.8 °F - 37.4 °F 42% 30.27 in - SE 20.7 mph - N/A   Clear
4:00 PM 60 °F - 39 °F 33% 30.26 in 25 mi SE 24.6 mph - -   Clear
4:00 PM 59.0 °F - 39.2 °F 48% 30.24 in - SE 24.2 mph - N/A   Clear
4:30 PM 59.0 °F - 39.2 °F 48% 30.24 in - SE 21.9 mph - N/A   Clear
5:00 PM 59 °F - 39 °F 35% 30.25 in 25 mi SSE 22.4 mph - -   Clear
5:00 PM 59.0 °F - 39.2 °F 48% 30.24 in - SSE 23.0 mph - N/A   Clear
5:30 PM 57.2 °F - 37.4 °F 48% 30.24 in - SSE 20.7 mph - N/A   Clear
6:00 PM 58 °F - 37 °F 34% 30.25 in 25 mi SSE 22.4 mph - -   Clear
6:00 PM 57.2 °F - 37.4 °F 48% 30.24 in - SSE 23.0 mph - N/A   Clear
6:30 PM 57.2 °F - 35.6 °F 44% 30.24 in - SSE 21.9 mph - N/A   Clear
7:00 PM 55 °F - 33 °F 31% 30.25 in 25 mi SSE 17.9 mph - -   Clear
7:00 PM 55.4 °F - 33.8 °F 44% 30.24 in - SSE 18.4 mph - N/A   Clear
7:30 PM 55.4 °F - 37.4 °F 51% 30.24 in 6.2 mi SE 18.4 mph - N/A   Mostly Cloudy
8:00 PM 53 °F - 37 °F 44% 30.26 in 25 mi SSE 20.1 mph - -   Scattered Clouds
8:00 PM 53.6 °F - 37.4 °F 54% 30.24 in 6.2 mi SSE 19.6 mph - N/A   Mostly Cloudy
8:30 PM 51.8 °F - 37.4 °F 58% 30.24 in 6.2 mi SSE 19.6 mph - N/A   Mostly Cloudy
9:00 PM 51 °F - 38 °F 50% 30.26 in 19 mi SSE 15.7 mph - -   Scattered Clouds
9:00 PM 51.8 °F - 37.4 °F 58% 30.24 in 6.2 mi SSE 15.0 mph - N/A   Mostly Cloudy
9:30 PM 50.0 °F - 39.2 °F 66% 30.27 in 6.2 mi SE 12.7 mph - N/A   Scattered Clouds
10:00 PM 49 °F - 40 °F 62% 30.28 in 19 mi SSE 13.4 mph - -   Scattered Clouds
10:00 PM 48.2 °F - 39.2 °F 71% 30.27 in 6.2 mi SSE 12.7 mph - N/A   Scattered Clouds
10:30 PM 48.2 °F - 41.0 °F 76% 30.24 in 6.2 mi SSE 12.7 mph - N/A   Scattered Clouds
11:00 PM 48 °F - 41 °F 68% 30.27 in 19 mi SE 8.9 mph - -   Scattered Clouds
11:00 PM 48.2 °F - 41.0 °F 76% 30.24 in 6.2 mi SE 9.2 mph - N/A   Scattered Clouds
11:30 PM 48.2 °F - 41.0 °F 76% 30.24 in 6.2 mi SE 9.2 mph - N/A   Scattered Clouds